Location: Oshawa
(43.9000°N, 78.8670°W)
Time: 11:52:18
(UTC-04:00)

Cosmos 839 Rocket - Visible Passes

Search period start: 23 July 2014 00:00
Search period end: 02 August 2014 00:00
Orbit: 967 x 2086 km, 65.9° (Epoch: 21 July)

Date Brightness Start Highest point End Pass type
(mag) Time Alt. Az. Time Alt. Az. Time Alt. Az.
23 Jul 5.6 01:40:23 10° WSW 01:48:43 40° NW 01:55:28 10° NNE visible
23 Jul 6.8 03:47:24 10° NW 03:51:06 14° NNW 03:54:31 10° N visible
23 Jul 5.2 23:01:46 24° SSE 23:06:29 39° ESE 23:13:33 10° NE visible
24 Jul 5.2 00:58:16 13° SW 01:06:34 55° NW 01:13:44 10° NNE visible
24 Jul 6.6 03:03:23 10° WNW 03:08:22 17° NNW 03:12:49 10° NNE visible
24 Jul 6.9 05:10:22 10° N 05:12:07 11° N 05:13:50 10° NNE visible
24 Jul 5.7 22:19:27 16° SSE 22:24:45 26° ESE 22:31:03 10° NE visible
25 Jul 4.8 00:15:53 13° SW 00:24:33 76° NW 00:31:57 10° NNE visible
25 Jul 6.4 02:19:34 10° W 02:25:47 22° NW 02:31:10 10° NNE visible
25 Jul 6.9 04:27:37 10° NNW 04:29:12 11° N 04:30:44 10° N visible
25 Jul 6.1 21:37:43 10° SE 21:43:08 17° ESE 21:47:56 10° ENE visible
25 Jul 4.6 23:33:02 10° SSW 23:42:36 78° ESE 23:50:04 10° NE visible
26 Jul 6.1 01:36:02 10° W 01:43:22 30° NW 01:49:30 10° NNE visible
26 Jul 6.9 03:43:53 10° NNW 03:46:18 12° NNW 03:48:36 10° N visible
26 Jul 4.8 22:51:25 10° S 23:00:43 55° ESE 23:08:04 10° NE visible
27 Jul 5.7 00:52:50 10° WSW 01:01:06 40° NW 01:07:49 10° NNE visible
27 Jul 6.9 02:59:49 10° NW 03:03:27 14° NNW 03:06:49 10° N visible
27 Jul 6.9 05:04:47 10° N 05:07:19 12° NNE 05:09:47 10° NE visible
27 Jul 5.2 22:10:19 10° S 22:18:54 38° ESE 22:25:53 10° NE visible
28 Jul 5.2 00:10:00 10° SW 00:18:58 56° NW 00:26:05 10° NNE visible
28 Jul 6.7 02:15:48 10° WNW 02:20:44 17° NNW 02:25:09 10° NNE visible
28 Jul 7.0 04:22:51 10° N 04:24:28 11° N 04:26:02 10° NNE visible
28 Jul 5.6 21:29:51 10° SSE 21:37:11 26° ESE 21:43:22 10° ENE visible
28 Jul 4.8 23:27:34 10° SW 23:36:57 77° NW 23:44:18 10° NNE visible
29 Jul 6.5 01:31:59 10° W 01:38:09 22° NW 01:43:30 10° NNE visible
29 Jul 7.0 03:40:06 10° NNW 03:41:33 11° N 03:42:57 10° N visible
29 Jul 4.6 22:45:32 10° SSW 22:55:00 77° ESE 23:02:25 10° NE visible
30 Jul 6.1 00:48:28 10° W 00:55:44 30° NW 01:01:51 10° NNE visible
30 Jul 7.0 02:56:18 10° NNW 02:58:38 12° NNW 03:00:52 10° N visible
30 Jul 6.8 04:58:55 10° N 05:02:25 15° NNE 05:05:48 10° NE visible
30 Jul 4.8 22:03:56 10° S 22:13:08 54° ESE 22:20:25 10° NE visible
31 Jul 5.7 00:05:17 10° WSW 00:13:29 41° NW 00:20:09 10° NNE visible
31 Jul 7.0 02:12:13 10° NW 02:15:48 14° NNW 02:19:08 10° N visible
31 Jul 7.0 04:17:14 10° N 04:19:40 12° NNE 04:22:02 10° NE visible
31 Jul 5.2 21:22:51 10° S 21:31:19 37° ESE 21:38:12 10° NE visible
31 Jul 5.2 23:22:28 10° SW 23:31:22 56° NW 23:38:26 10° NNE visible
01 Aug 6.8 01:28:12 10° WNW 01:33:05 17° NNW 01:37:29 10° NNE visible
01 Aug 7.1 03:35:21 10° N 03:36:48 11° N 03:38:13 10° NNE visible
01 Aug 4.8 22:40:02 10° SW 22:49:21 78° WNW 22:56:38 10° NNE visible
